• In Netherlands
  • List of Countries
  • For 7 days
  • Water Temperature
  • Satellite Maps
  • Weather Map
  • Weather Widgets
  • user-avatar
    Login

    Hourly Weather Lankaran

    Today, 20 January, Saturday

    Time Temperature Precipitation Wind Pressure Humidity
    00:00 +1°C° 0 mm 2 mps 627 mmHg 59%
    01:00 +1°C° 0.1 mm 2 mps 627 mmHg 62%
    02:00 +1°C° 0.1 mm 2 mps 628 mmHg 66%
    03:00 0°C° 0 mm 3 mps 628 mmHg 69%
    04:00 -1°C° 0.2 mm 3 mps 628 mmHg 73%
    05:00 -1°C° 0.2 mm 2 mps 629 mmHg 76%
    06:00 -1°C° 0.2 mm 2 mps 629 mmHg 80%
    07:00 -1°C° 0.2 mm 2 mps 630 mmHg 82%
    08:00 -1°C° 0.2 mm 2 mps 630 mmHg 83%
    09:00 -1°C° 0 mm 2 mps 630 mmHg 86%
    10:00 -1°C° 0.7 mm 2 mps 631 mmHg 85%
    11:00 -1°C° 0.7 mm 2 mps 631 mmHg 84%
    12:00 +1°C° 0.7 mm 2 mps 632 mmHg 83%
    13:00 +1°C° 0.4 mm 2 mps 632 mmHg 83%
    14:00 +1°C° 0.4 mm 2 mps 633 mmHg 82%
    15:00 -1°C° 0.4 mm 2 mps 633 mmHg 82%
    16:00 -1°C° 0.2 mm 2 mps 633 mmHg 83%
    17:00 -1°C° 0.2 mm 2 mps 634 mmHg 84%
    18:00 -2°C° 0.2 mm 2 mps 634 mmHg 85%
    19:00 -2°C° 0.1 mm 2 mps 634 mmHg 83%
    20:00 -2°C° 0.1 mm 2 mps 634 mmHg 81%
    21:00 -2°C° 0.1 mm 3 mps 634 mmHg 79%
    22:00 -2°C° 0 mm 3 mps 634 mmHg 77%
    23:00 -4°C° 0 mm 3 mps 634 mmHg 75%

    Tomorrow, 21 January, Sunday

    Time Temperature Precipitation Wind Pressure Humidity
    00:00 -4°C° 0 mm 3 mps 634 mmHg 72%
    01:00 -4°C° 0 mm 3 mps 634 mmHg 71%
    02:00 -4°C° 0 mm 3 mps 634 mmHg 69%
    03:00 -4°C° 0 mm 3 mps 634 mmHg 67%
    04:00 -4°C° 0 mm 3 mps 634 mmHg 66%
    05:00 -4°C° 0 mm 3 mps 634 mmHg 65%
    06:00 -4°C° 0 mm 3 mps 634 mmHg 64%
    07:00 -2°C° 0 mm 3 mps 634 mmHg 62%
    08:00 -1°C° 0 mm 3 mps 634 mmHg 61%
    09:00 0°C° 0 mm 3 mps 634 mmHg 59%
    10:00 +2°C° 0 mm 3 mps 634 mmHg 57%
    11:00 +3°C° 0 mm 4 mps 634 mmHg 55%
    12:00 +5°C° 0 mm 4 mps 634 mmHg 53%
    13:00 +5°C° 0 mm 4 mps 634 mmHg 52%
    14:00 +5°C° 0 mm 4 mps 633 mmHg 50%
    15:00 +5°C° 0 mm 4 mps 633 mmHg 49%
    16:00 +3°C° 0 mm 3 mps 633 mmHg 50%
    17:00 +2°C° 0 mm 3 mps 633 mmHg 51%
    18:00 0°C° 0 mm 3 mps 633 mmHg 52%
    19:00 0°C° 0 mm 3 mps 633 mmHg 49%
    20:00 0°C° 0 mm 3 mps 633 mmHg 47%
    21:00 +1°C° 0 mm 2 mps 633 mmHg 45%
    22:00 +1°C° 0 mm 2 mps 633 mmHg 44%
    23:00 +1°C° 0 mm 2 mps 633 mmHg 44%

    Day after tomorrow, 22 January, Monday

    Time Temperature Precipitation Wind Pressure Humidity
    00:00 +1°C° 0 mm 2 mps 633 mmHg 43%
    01:00 +1°C° 0 mm 2 mps 633 mmHg 42%
    02:00 +1°C° 0 mm 2 mps 633 mmHg 41%
    03:00 +1°C° 0 mm 2 mps 633 mmHg 40%
    04:00 +1°C° 0 mm 2 mps 632 mmHg 39%
    05:00 +1°C° 0 mm 2 mps 632 mmHg 38%
    06:00 +1°C° 0 mm 2 mps 632 mmHg 37%
    07:00 +2°C° 0 mm 2 mps 632 mmHg 38%
    08:00 +3°C° 0 mm 2 mps 632 mmHg 38%
    09:00 +4°C° 0 mm 2 mps 633 mmHg 39%
    10:00 +6°C° 0 mm 2 mps 632 mmHg 39%
    11:00 +7°C° 0 mm 3 mps 632 mmHg 39%
    12:00 +8°C° 0 mm 3 mps 631 mmHg 39%
    13:00 +8°C° 0 mm 3 mps 631 mmHg 40%
    14:00 +8°C° 0 mm 3 mps 630 mmHg 41%
    15:00 +8°C° 0 mm 3 mps 630 mmHg 42%
    16:00 +5°C° 0 mm 3 mps 629 mmHg 43%
    17:00 +4°C° 0 mm 3 mps 629 mmHg 43%
    18:00 +4°C° 0 mm 2 mps 629 mmHg 44%
    19:00 +3°C° 0 mm 3 mps 628 mmHg 42%
    20:00 +2°C° 0 mm 3 mps 628 mmHg 40%
    21:00 +2°C° 0 mm 3 mps 628 mmHg 38%
    22:00 +2°C° 0 mm 3 mps 627 mmHg 37%
    23:00 +1°C° 0 mm 3 mps 627 mmHg 36%

    23 January, Tuesday

    Time Temperature Precipitation Wind Pressure Humidity
    00:00 0°C° 0 mm 4 mps 627 mmHg 35%
    01:00 0°C° 0 mm 4 mps 627 mmHg 34%
    02:00 0°C° 0 mm 4 mps 627 mmHg 34%
    03:00 0°C° 0 mm 4 mps 627 mmHg 33%
    04:00 -1°C° 0 mm 4 mps 627 mmHg 33%
    05:00 -1°C° 0 mm 4 mps 627 mmHg 34%
    06:00 -1°C° 0 mm 4 mps 626 mmHg 34%
    07:00 0°C° 0 mm 4 mps 627 mmHg 34%
    08:00 +1°C° 0 mm 4 mps 627 mmHg 34%
    09:00 +3°C° 0 mm 4 mps 628 mmHg 34%
    10:00 +5°C° 0 mm 4 mps 628 mmHg 33%
    11:00 +6°C° 0 mm 5 mps 628 mmHg 32%
    12:00 +7°C° 0 mm 5 mps 628 mmHg 31%
    13:00 +7°C° 0 mm 5 mps 628 mmHg 32%
    14:00 +7°C° 0 mm 4 mps 627 mmHg 33%
    15:00 +7°C° 0 mm 4 mps 627 mmHg 34%
    16:00 +5°C° 0 mm 4 mps 627 mmHg 36%
    17:00 +4°C° 0 mm 3 mps 627 mmHg 39%
    18:00 +3°C° 0 mm 2 mps 627 mmHg 42%
    19:00 +3°C° 0 mm 2 mps 627 mmHg 42%
    20:00 +2°C° 0 mm 3 mps 627 mmHg 41%
    21:00 +2°C° 0 mm 3 mps 627 mmHg 41%
    22:00 +3°C° 0 mm 2 mps 627 mmHg 42%
    23:00 +2°C° 0 mm 2 mps 627 mmHg 44%

    24 January, Wednesday

    Time Temperature Precipitation Wind Pressure Humidity
    00:00 +2°C° 0 mm 2 mps 626 mmHg 45%
    01:00 +2°C° 0 mm 2 mps 627 mmHg 48%
    02:00 +2°C° 0 mm 2 mps 627 mmHg 51%
    03:00 +1°C° 0 mm 3 mps 627 mmHg 54%
    04:00 +1°C° 0 mm 3 mps 627 mmHg 56%
    05:00 +1°C° 0 mm 3 mps 627 mmHg 58%
    06:00 +1°C° 0 mm 3 mps 627 mmHg 59%
    07:00 +1°C° 0 mm 3 mps 627 mmHg 58%
    08:00 +2°C° 0 mm 3 mps 628 mmHg 56%
    09:00 +3°C° 0 mm 4 mps 628 mmHg 55%
    10:00 +3°C° 0 mm 5 mps 629 mmHg 52%
    11:00 +5°C° 0 mm 5 mps 629 mmHg 50%
    12:00 +5°C° 0 mm 6 mps 629 mmHg 47%
    13:00 +4°C° 0 mm 6 mps 630 mmHg 48%
    14:00 +4°C° 0 mm 6 mps 630 mmHg 49%
    15:00 +5°C° 0 mm 5 mps 630 mmHg 51%
    16:00 +3°C° 0.1 mm 5 mps 630 mmHg 56%
    17:00 +3°C° 0.1 mm 4 mps 630 mmHg 60%
    18:00 +2°C° 0.1 mm 3 mps 631 mmHg 65%
    19:00 +1°C° 0 mm 3 mps 631 mmHg 68%
    20:00 +1°C° 0 mm 3 mps 631 mmHg 70%
    21:00 0°C° 0 mm 3 mps 632 mmHg 73%
    22:00 0°C° 0 mm 3 mps 632 mmHg 76%
    23:00 0°C° 0 mm 3 mps 632 mmHg 80%

    25 January, Thursday

    Time Temperature Precipitation Wind Pressure Humidity
    00:00 -1°C° 0 mm 3 mps 632 mmHg 83%
    01:00 -1°C° 0.2 mm 3 mps 632 mmHg 85%
    02:00 -1°C° 0.2 mm 3 mps 633 mmHg 87%
    03:00 -1°C° 0.2 mm 2 mps 633 mmHg 88%
    04:00 -1°C° 0.3 mm 3 mps 633 mmHg 89%
    05:00 -2°C° 0.3 mm 3 mps 634 mmHg 90%
    06:00 -2°C° 0.3 mm 3 mps 634 mmHg 91%
    07:00 -2°C° 0.5 mm 3 mps 634 mmHg 90%
    08:00 -1°C° 0.5 mm 3 mps 635 mmHg 89%
    09:00 -2°C° 0.5 mm 4 mps 635 mmHg 88%
    10:00 -2°C° 0.5 mm 4 mps 635 mmHg 86%
    11:00 -2°C° 0.5 mm 4 mps 635 mmHg 85%
    12:00 -2°C° 0.5 mm 4 mps 635 mmHg 83%
    13:00 -2°C° 0.4 mm 4 mps 635 mmHg 83%
    14:00 -2°C° 0.4 mm 4 mps 635 mmHg 82%
    15:00 -2°C° 0.4 mm 4 mps 635 mmHg 82%
    16:00 -2°C° 0.4 mm 4 mps 635 mmHg 84%
    17:00 -3°C° 0.4 mm 4 mps 635 mmHg 86%
    18:00 -3°C° 0.4 mm 4 mps 635 mmHg 89%
    19:00 -3°C° 0.4 mm 4 mps 636 mmHg 89%
    20:00 -2°C° 0.4 mm 3 mps 636 mmHg 89%
    21:00 -4°C° 0.4 mm 3 mps 636 mmHg 89%
    22:00 -4°C° 0.4 mm 3 mps 636 mmHg 89%
    23:00 -4°C° 0.4 mm 3 mps 636 mmHg 90%
    Show more